Time,TemperatureF,DewpointF,PressureIn,WindDirection,WindDirectionDegrees,WindSpeedMPH,WindSpeedGustMPH,Humidity,HourlyPrecipIn,Conditions,Clouds,dailyrainin,SolarRadiationWatts/m^2,SoftwareType,DateUTC
2017-05-26 00:03:00,51.5,50.7,29.78,NNE,19,0.0,2.0,97,0.00,,,0.00,0,WeatherCatV2.40B198,2017-05-26 04:03:00,
2017-05-26 00:08:00,51.5,50.7,29.78,NNE,19,0.0,1.0,97,0.00,,,0.00,0,WeatherCatV2.40B198,2017-05-26 04:08:00,
2017-05-26 00:13:00,51.5,50.7,29.77,NNE,19,0.0,2.0,97,0.00,,,0.01,0,WeatherCatV2.40B198,2017-05-26 04:13:00,
2017-05-26 00:18:00,51.5,50.7,29.76,NNE,19,0.0,2.0,97,0.00,,,0.01,0,WeatherCatV2.40B198,2017-05-26 04:18:00,
2017-05-26 00:23:00,51.5,51.0,29.76,NNE,19,0.0,1.0,98,0.00,,,0.01,0,WeatherCatV2.40B198,2017-05-26 04:23:00,
2017-05-26 00:28:00,51.6,51.0,29.76,NNE,19,0.0,1.0,98,0.00,,,0.01,0,WeatherCatV2.40B198,2017-05-26 04:28:00,
2017-05-26 00:33:00,51.7,51.2,29.75,NNE,19,0.0,0.0,98,0.00,,,0.01,0,WeatherCatV2.40B198,2017-05-26 04:33:00,
2017-05-26 00:38:00,51.6,51.0,29.75,NNE,19,0.0,0.0,98,0.00,,,0.02,0,WeatherCatV2.40B198,2017-05-26 04:38:00,
2017-05-26 00:43:00,51.5,51.0,29.75,NNE,19,0.0,0.0,98,0.00,,,0.02,0,WeatherCatV2.40B198,2017-05-26 04:43:00,
2017-05-26 00:48:00,51.5,51.0,29.75,NNE,19,0.0,0.0,98,0.05,,,0.03,0,WeatherCatV2.40B198,2017-05-26 04:48:00,
2017-05-26 00:53:00,51.5,51.0,29.76,NNE,19,0.0,0.0,98,0.05,,,0.03,0,WeatherCatV2.40B198,2017-05-26 04:53:00,
2017-05-26 00:58:00,51.5,51.0,29.75,NNE,19,0.0,0.0,98,0.05,,,0.03,0,WeatherCatV2.40B198,2017-05-26 04:58:00,
2017-05-26 01:03:00,51.5,51.0,29.74,NNE,19,1.0,2.0,98,0.00,,,0.03,0,WeatherCatV2.40B198,2017-05-26 05:03:00,
2017-05-26 01:08:00,51.5,51.0,29.74,NNE,19,0.0,1.0,98,0.00,,,0.04,0,WeatherCatV2.40B198,2017-05-26 05:08:00,
2017-05-26 01:13:00,51.5,51.0,29.73,NNE,19,1.0,1.0,98,0.00,,,0.04,0,WeatherCatV2.40B198,2017-05-26 05:13:00,
2017-05-26 01:18:00,51.5,51.0,29.73,NNE,19,0.0,1.0,98,0.00,,,0.04,0,WeatherCatV2.40B198,2017-05-26 05:18:00,
2017-05-26 01:23:00,51.5,51.0,29.73,NNE,19,0.0,1.0,98,0.00,,,0.04,0,WeatherCatV2.40B198,2017-05-26 05:23:00,
2017-05-26 01:28:00,51.5,51.0,29.72,NNE,19,0.0,1.0,98,0.00,,,0.04,0,WeatherCatV2.40B198,2017-05-26 05:28:00,
2017-05-26 01:29:00,51.6,51.0,29.72,NNE,19,0.0,1.0,98,0.00,,,0.04,0,WeatherCatV2.40B198,2017-05-26 05:29:00,
2017-05-26 01:34:00,51.6,51.0,29.72,NNE,19,2.0,2.0,98,0.00,,,0.04,0,WeatherCatV2.40B198,2017-05-26 05:34:00,
2017-05-26 01:39:00,51.7,51.2,29.72,NNE,15,1.0,3.0,98,0.00,,,0.04,0,WeatherCatV2.40B198,2017-05-26 05:39:00,
2017-05-26 01:40:00,51.7,51.2,29.72,NNE,16,3.0,3.0,98,0.00,,,0.04,0,WeatherCatV2.40B198,2017-05-26 05:40:00,
2017-05-26 01:45:00,51.7,51.2,29.72,North,11,0.0,2.0,98,0.00,,,0.04,0,WeatherCatV2.40B198,2017-05-26 05:45:00,
2017-05-26 01:50:00,51.8,51.2,29.71,North,5,0.0,2.0,98,0.00,,,0.05,0,WeatherCatV2.40B198,2017-05-26 05:50:00,
2017-05-26 01:55:00,51.8,51.2,29.72,North,355,1.0,1.0,98,0.00,,,0.05,0,WeatherCatV2.40B198,2017-05-26 05:55:00,
2017-05-26 02:00:00,51.8,51.2,29.71,North,11,0.0,3.0,98,0.00,,,0.05,0,WeatherCatV2.40B198,2017-05-26 06:00:00,
2017-05-26 02:10:00,51.8,51.2,29.70,North,5,0.0,0.0,98,0.00,,,0.05,0,WeatherCatV2.40B198,2017-05-26 06:10:00,
2017-05-26 02:15:00,51.8,51.2,29.71,North,5,0.0,0.0,98,0.00,,,0.05,0,WeatherCatV2.40B198,2017-05-26 06:15:00,
2017-05-26 02:20:00,51.8,51.2,29.71,North,9,1.0,3.0,98,0.00,,,0.05,0,WeatherCatV2.40B198,2017-05-26 06:20:00,
2017-05-26 02:25:00,51.8,51.2,29.71,North,351,0.0,2.0,98,0.00,,,0.05,0,WeatherCatV2.40B198,2017-05-26 06:25:00,
2017-05-26 02:30:00,51.9,51.3,29.70,North,351,2.0,2.0,98,0.00,,,0.05,0,WeatherCatV2.40B198,2017-05-26 06:30:00,
2017-05-26 02:35:00,51.9,51.3,29.70,North,355,2.0,3.0,98,0.00,,,0.06,0,WeatherCatV2.40B198,2017-05-26 06:35:00,
2017-05-26 02:40:00,51.8,51.2,29.69,North,5,0.0,3.0,98,0.00,,,0.06,0,WeatherCatV2.40B198,2017-05-26 06:40:00,
2017-05-26 02:45:00,51.8,51.2,29.68,North,0,1.0,4.0,98,0.00,,,0.06,0,WeatherCatV2.40B198,2017-05-26 06:45:00,
2017-05-26 02:50:00,51.8,51.2,29.68,North,355,0.0,3.0,98,0.04,,,0.07,0,WeatherCatV2.40B198,2017-05-26 06:50:00,
2017-05-26 02:55:00,51.8,51.2,29.67,North,5,0.0,4.0,98,0.04,,,0.07,0,WeatherCatV2.40B198,2017-05-26 06:55:00,
2017-05-26 03:00:00,51.7,51.2,29.67,NNE,12,3.0,5.0,98,0.04,,,0.07,0,WeatherCatV2.40B198,2017-05-26 07:00:00,
2017-05-26 03:05:00,51.7,51.2,29.66,NNE,13,3.0,4.0,98,0.00,,,0.07,0,WeatherCatV2.40B198,2017-05-26 07:05:00,
2017-05-26 03:10:00,51.6,51.0,29.67,North,10,4.0,5.0,98,0.00,,,0.08,0,WeatherCatV2.40B198,2017-05-26 07:10:00,
2017-05-26 03:15:00,51.5,51.0,29.67,NNW,341,2.0,5.0,98,0.00,,,0.08,0,WeatherCatV2.40B198,2017-05-26 07:15:00,
2017-05-26 03:20:00,51.4,50.8,29.66,North,350,3.0,6.0,98,0.00,,,0.08,0,WeatherCatV2.40B198,2017-05-26 07:20:00,
2017-05-26 03:25:00,51.4,50.8,29.67,North,0,1.0,2.0,98,0.00,,,0.08,0,WeatherCatV2.40B198,2017-05-26 07:25:00,
2017-05-26 03:30:00,51.3,50.8,29.67,North,355,1.0,3.0,98,0.00,,,0.08,0,WeatherCatV2.40B198,2017-05-26 07:30:00,
2017-05-26 03:35:00,51.2,50.7,29.66,North,355,0.0,2.0,98,0.00,,,0.08,0,WeatherCatV2.40B198,2017-05-26 07:35:00,
2017-05-26 03:40:00,51.2,50.7,29.66,North,5,0.0,2.0,98,0.00,,,0.08,0,WeatherCatV2.40B198,2017-05-26 07:40:00,
2017-05-26 03:45:00,51.2,50.7,29.66,North,5,3.0,3.0,98,0.00,,,0.08,0,WeatherCatV2.40B198,2017-05-26 07:45:00,
2017-05-26 03:50:00,51.1,50.5,29.66,NNE,18,0.0,4.0,98,0.00,,,0.09,0,WeatherCatV2.40B198,2017-05-26 07:50:00,
2017-05-26 03:55:00,51.1,50.5,29.66,North,0,2.0,2.0,98,0.11,,,0.10,0,WeatherCatV2.40B198,2017-05-26 07:55:00,
2017-05-26 04:00:00,51.0,50.5,29.66,North,355,0.0,1.0,98,0.12,,,0.11,0,WeatherCatV2.40B198,2017-05-26 08:00:00,
2017-05-26 04:05:00,50.9,50.1,29.65,North,11,0.0,0.0,97,0.15,,,0.12,0,WeatherCatV2.40B198,2017-05-26 08:05:00,
2017-05-26 04:10:00,50.7,49.9,29.65,North,11,0.0,0.0,97,0.16,,,0.14,0,WeatherCatV2.40B198,2017-05-26 08:10:00,
2017-05-26 04:15:00,50.6,49.8,29.66,North,11,0.0,0.0,97,0.46,,,0.17,0,WeatherCatV2.40B198,2017-05-26 08:15:00,
2017-05-26 04:20:00,50.5,49.7,29.67,North,11,0.0,0.0,97,0.20,,,0.19,0,WeatherCatV2.40B198,2017-05-26 08:20:00,
2017-05-26 04:25:00,50.5,49.7,29.68,North,11,0.0,0.0,97,0.36,,,0.22,0,WeatherCatV2.40B198,2017-05-26 08:25:00,
2017-05-26 04:30:00,50.5,49.7,29.68,North,11,1.0,1.0,97,0.87,,,0.27,0,WeatherCatV2.40B198,2017-05-26 08:30:00,
2017-05-26 04:35:00,50.4,49.6,29.67,North,11,0.0,0.0,97,0.38,,,0.31,0,WeatherCatV2.40B198,2017-05-26 08:35:00,
2017-05-26 04:40:00,50.3,49.5,29.67,North,11,0.0,0.0,97,0.34,,,0.35,0,WeatherCatV2.40B198,2017-05-26 08:40:00,
2017-05-26 04:45:00,50.2,49.4,29.67,North,11,0.0,1.0,97,0.33,,,0.37,0,WeatherCatV2.40B198,2017-05-26 08:45:00,
2017-05-26 04:50:00,50.1,49.3,29.67,North,11,0.0,2.0,97,0.29,,,0.40,0,WeatherCatV2.40B198,2017-05-26 08:50:00,
2017-05-26 04:55:00,50.1,49.3,29.67,North,11,0.0,2.0,97,0.28,,,0.41,0,WeatherCatV2.40B198,2017-05-26 08:55:00,
2017-05-26 05:00:00,50.2,49.4,29.66,North,355,0.0,3.0,97,0.32,,,0.44,0,WeatherCatV2.40B198,2017-05-26 09:00:00,
2017-05-26 05:05:00,50.3,49.8,29.65,North,5,1.0,2.0,98,0.49,,,0.48,0,WeatherCatV2.40B198,2017-05-26 09:05:00,
2017-05-26 05:10:00,50.3,49.8,29.65,North,9,1.0,1.0,98,0.37,,,0.51,0,WeatherCatV2.40B198,2017-05-26 09:10:00,
2017-05-26 05:15:00,50.3,49.8,29.65,North,0,0.0,3.0,98,0.41,,,0.55,0,WeatherCatV2.40B198,2017-05-26 09:15:00,
2017-05-26 05:20:00,50.3,49.8,29.65,North,11,1.0,2.0,98,0.39,,,0.58,0,WeatherCatV2.40B198,2017-05-26 09:20:00,
2017-05-26 05:25:00,50.2,49.7,29.65,North,5,0.0,4.0,98,0.45,,,0.61,0,WeatherCatV2.40B198,2017-05-26 09:25:00,
2017-05-26 05:30:00,50.2,49.7,29.65,North,5,0.0,1.0,98,0.61,,,0.66,0,WeatherCatV2.40B198,2017-05-26 09:30:00,
2017-05-26 05:35:00,50.2,49.7,29.65,North,5,0.0,0.0,98,0.58,,,0.70,0,WeatherCatV2.40B198,2017-05-26 09:35:00,
2017-05-26 05:36:00,50.2,49.7,29.65,North,5,0.0,2.0,98,0.49,,,0.71,0,WeatherCatV2.40B198,2017-05-26 09:36:00,
2017-05-26 05:41:00,50.1,49.6,29.65,North,5,2.0,2.0,98,0.57,,,0.76,0,WeatherCatV2.40B198,2017-05-26 09:41:00,
2017-05-26 05:46:00,50.1,49.6,29.65,North,5,0.0,1.0,98,0.35,,,0.79,0,WeatherCatV2.40B198,2017-05-26 09:46:00,
2017-05-26 05:51:00,50.0,49.5,29.65,North,5,1.0,1.0,98,0.50,,,0.83,0,WeatherCatV2.40B198,2017-05-26 09:51:00,
2017-05-26 05:56:00,50.0,49.5,29.65,North,5,0.0,3.0,98,0.42,,,0.87,0,WeatherCatV2.40B198,2017-05-26 09:56:00,
2017-05-26 06:01:00,49.9,49.4,29.66,North,5,0.0,2.0,98,0.76,,,0.92,0,WeatherCatV2.40B198,2017-05-26 10:01:00,
2017-05-26 06:06:00,49.9,49.4,29.66,North,5,0.0,2.0,98,0.49,,,0.96,0,WeatherCatV2.40B198,2017-05-26 10:06:00,
2017-05-26 06:11:00,49.9,49.4,29.65,North,5,0.0,1.0,98,0.81,,,1.02,0,WeatherCatV2.40B198,2017-05-26 10:11:00,
2017-05-26 06:16:00,49.8,49.3,29.65,North,5,2.0,3.0,98,0.55,,,1.05,0,WeatherCatV2.40B198,2017-05-26 10:16:00,
2017-05-26 06:17:00,49.8,49.3,29.65,North,5,0.0,3.0,98,0.51,,,1.06,0,WeatherCatV2.40B198,2017-05-26 10:17:00,
2017-05-26 06:22:00,49.8,49.3,29.65,North,5,1.0,2.0,98,0.46,,,1.10,0,WeatherCatV2.40B198,2017-05-26 10:22:00,
2017-05-26 06:27:00,49.7,49.2,29.64,NNE,15,4.0,4.0,98,0.37,,,1.15,0,WeatherCatV2.40B198,2017-05-26 10:27:00,
2017-05-26 06:32:00,49.6,49.1,29.64,North,5,1.0,3.0,98,0.50,,,1.18,5,WeatherCatV2.40B198,2017-05-26 10:32:00,
2017-05-26 06:37:00,49.5,49.0,29.64,North,9,1.0,3.0,98,0.50,,,1.22,5,WeatherCatV2.40B198,2017-05-26 10:37:00,
2017-05-26 06:42:00,49.5,49.0,29.64,North,5,4.0,4.0,98,0.31,,,1.25,7,WeatherCatV2.40B198,2017-05-26 10:42:00,
2017-05-26 06:47:00,49.4,48.9,29.63,NNW,344,1.0,3.0,98,0.38,,,1.28,9,WeatherCatV2.40B198,2017-05-26 10:47:00,
2017-05-26 06:52:00,49.3,48.8,29.63,North,0,4.0,4.0,98,0.29,,,1.31,11,WeatherCatV2.40B198,2017-05-26 10:52:00,
2017-05-26 06:57:00,49.2,48.7,29.62,North,0,4.0,9.0,98,0.19,,,1.32,14,WeatherCatV2.40B198,2017-05-26 10:57:00,
2017-05-26 07:02:00,49.2,48.7,29.61,NNW,330,4.0,7.0,98,0.10,,,1.33,19,WeatherCatV2.40B198,2017-05-26 11:02:00,
2017-05-26 07:07:00,49.2,48.7,29.60,North,11,4.0,6.0,98,0.09,,,1.34,25,WeatherCatV2.40B198,2017-05-26 11:07:00,
2017-05-26 07:12:00,49.2,48.7,29.59,North,5,4.0,5.0,98,0.09,,,1.34,28,WeatherCatV2.40B198,2017-05-26 11:12:00,
2017-05-26 07:13:00,49.2,48.7,29.58,NNW,347,4.0,5.0,98,0.09,,,1.34,28,WeatherCatV2.40B198,2017-05-26 11:13:00,
2017-05-26 07:18:00,49.0,48.5,29.57,NNW,342,5.0,7.0,98,0.05,,,1.34,35,WeatherCatV2.40B198,2017-05-26 11:18:00,
2017-05-26 07:23:00,48.8,48.0,29.56,North,355,2.0,5.0,97,0.04,,,1.35,40,WeatherCatV2.40B198,2017-05-26 11:23:00,
2017-05-26 07:28:00,48.7,47.9,29.57,North,355,0.0,2.0,97,0.04,,,1.35,44,WeatherCatV2.40B198,2017-05-26 11:28:00,
2017-05-26 07:33:00,48.7,47.9,29.58,NNE,13,0.0,3.0,97,0.04,,,1.35,42,WeatherCatV2.40B198,2017-05-26 11:33:00,
2017-05-26 07:38:00,48.6,47.8,29.58,NNE,20,0.0,4.0,97,0.04,,,1.35,42,WeatherCatV2.40B198,2017-05-26 11:38:00,
2017-05-26 07:43:00,48.6,47.8,29.58,North,355,0.0,3.0,97,0.00,,,1.35,44,WeatherCatV2.40B198,2017-05-26 11:43:00,
2017-05-26 07:48:00,48.6,48.1,29.58,NNW,343,0.0,2.0,98,0.00,,,1.35,49,WeatherCatV2.40B198,2017-05-26 11:48:00,
2017-05-26 07:53:00,48.6,48.1,29.58,NNE,16,0.0,2.0,98,0.00,,,1.35,35,WeatherCatV2.40B198,2017-05-26 11:53:00,
2017-05-26 07:58:00,48.6,48.1,29.59,NNW,333,0.0,3.0,98,0.00,,,1.35,25,WeatherCatV2.40B198,2017-05-26 11:58:00,
2017-05-26 08:03:00,48.7,48.2,29.58,NNW,344,1.0,2.0,98,0.00,,,1.36,28,WeatherCatV2.40B198,2017-05-26 12:03:00,
2017-05-26 08:08:00,48.7,48.2,29.58,North,5,0.0,4.0,98,0.00,,,1.36,33,WeatherCatV2.40B198,2017-05-26 12:08:00,
2017-05-26 08:13:00,48.7,48.2,29.58,North,11,0.0,3.0,98,0.00,,,1.36,35,WeatherCatV2.40B198,2017-05-26 12:13:00,
2017-05-26 08:18:00,48.7,48.2,29.58,NNW,348,0.0,3.0,98,0.00,,,1.36,39,WeatherCatV2.40B198,2017-05-26 12:18:00,
2017-05-26 08:23:00,48.8,48.3,29.58,NNW,342,0.0,3.0,98,0.00,,,1.36,40,WeatherCatV2.40B198,2017-05-26 12:23:00,
2017-05-26 08:28:00,48.8,48.3,29.58,North,5,0.0,2.0,98,0.00,,,1.36,47,WeatherCatV2.40B198,2017-05-26 12:28:00,
2017-05-26 08:33:00,48.9,48.4,29.58,NNE,14,0.0,5.0,98,0.00,,,1.36,49,WeatherCatV2.40B198,2017-05-26 12:33:00,
2017-05-26 08:38:00,48.9,48.4,29.58,North,5,0.0,3.0,98,0.00,,,1.36,51,WeatherCatV2.40B198,2017-05-26 12:38:00,
2017-05-26 08:43:00,49.0,48.5,29.58,North,5,3.0,3.0,98,0.00,,,1.36,46,WeatherCatV2.40B198,2017-05-26 12:43:00,
2017-05-26 08:48:00,49.0,48.5,29.58,North,5,0.0,4.0,98,0.00,,,1.36,53,WeatherCatV2.40B198,2017-05-26 12:48:00,
2017-05-26 08:53:00,49.1,48.6,29.58,North,5,0.0,3.0,98,0.00,,,1.36,49,WeatherCatV2.40B198,2017-05-26 12:53:00,
2017-05-26 09:03:00,49.2,48.7,29.58,North,0,0.0,3.0,98,0.00,,,1.36,42,WeatherCatV2.40B198,2017-05-26 13:03:00,
2017-05-26 09:08:00,49.3,48.8,29.57,NNE,19,0.0,2.0,98,0.00,,,1.36,46,WeatherCatV2.40B198,2017-05-26 13:08:00,
2017-05-26 09:13:00,49.3,48.8,29.57,North,355,0.0,0.0,98,0.00,,,1.36,67,WeatherCatV2.40B198,2017-05-26 13:13:00,
2017-05-26 09:23:00,49.4,48.9,29.58,NE,38,0.0,1.0,98,0.00,,,1.36,63,WeatherCatV2.40B198,2017-05-26 13:23:00,
2017-05-26 09:28:00,49.4,48.6,29.57,North,350,0.0,4.0,97,0.00,,,1.36,65,WeatherCatV2.40B198,2017-05-26 13:28:00,
2017-05-26 09:33:00,49.4,48.6,29.57,North,5,0.0,3.0,97,0.00,,,1.36,81,WeatherCatV2.40B198,2017-05-26 13:33:00,
2017-05-26 09:38:00,49.5,48.7,29.57,NNW,333,0.0,2.0,97,0.00,,,1.36,76,WeatherCatV2.40B198,2017-05-26 13:38:00,
2017-05-26 09:43:00,49.6,48.8,29.57,North,355,0.0,1.0,97,0.00,,,1.36,104,WeatherCatV2.40B198,2017-05-26 13:43:00,
2017-05-26 09:48:00,49.6,48.8,29.57,NNE,13,0.0,3.0,97,0.00,,,1.36,88,WeatherCatV2.40B198,2017-05-26 13:48:00,
2017-05-26 09:53:00,49.7,48.9,29.57,NNW,330,1.0,1.0,97,0.00,,,1.36,97,WeatherCatV2.40B198,2017-05-26 13:53:00,
2017-05-26 09:58:00,49.8,49.0,29.57,NNE,15,0.0,3.0,97,0.00,,,1.36,97,WeatherCatV2.40B198,2017-05-26 13:58:00,
2017-05-26 09:59:00,49.8,49.0,29.57,NNE,16,0.0,2.0,97,0.00,,,1.36,93,WeatherCatV2.40B198,2017-05-26 13:59:00,
2017-05-26 10:04:00,49.9,49.1,29.57,NNW,347,0.0,0.0,97,0.00,,,1.36,83,WeatherCatV2.40B198,2017-05-26 14:04:00,
2017-05-26 10:09:00,49.9,49.1,29.57,North,355,1.0,2.0,97,0.00,,,1.36,81,WeatherCatV2.40B198,2017-05-26 14:09:00,
2017-05-26 10:14:00,49.9,49.1,29.57,NNW,348,0.0,1.0,97,0.00,,,1.36,107,WeatherCatV2.40B198,2017-05-26 14:14:00,
2017-05-26 10:19:00,50.0,49.2,29.57,NNW,342,0.0,1.0,97,0.00,,,1.36,100,WeatherCatV2.40B198,2017-05-26 14:19:00,
2017-05-26 10:24:00,50.0,49.2,29.57,North,355,0.0,4.0,97,0.00,,,1.36,128,WeatherCatV2.40B198,2017-05-26 14:24:00,
2017-05-26 10:29:00,50.0,49.2,29.57,North,5,1.0,2.0,97,0.00,,,1.36,121,WeatherCatV2.40B198,2017-05-26 14:29:00,
2017-05-26 10:34:00,50.1,49.3,29.57,North,0,0.0,3.0,97,0.00,,,1.36,113,WeatherCatV2.40B198,2017-05-26 14:34:00,
2017-05-26 10:35:00,50.1,49.3,29.57,North,0,0.0,0.0,97,0.00,,,1.36,114,WeatherCatV2.40B198,2017-05-26 14:35:00,
2017-05-26 10:40:00,50.1,49.3,29.57,North,350,2.0,2.0,97,0.00,,,1.36,118,WeatherCatV2.40B198,2017-05-26 14:40:00,
2017-05-26 10:45:00,50.2,49.4,29.57,North,355,0.0,2.0,97,0.00,,,1.36,149,WeatherCatV2.40B198,2017-05-26 14:45:00,
2017-05-26 10:50:00,50.3,49.5,29.57,North,0,0.0,1.0,97,0.00,,,1.36,156,WeatherCatV2.40B198,2017-05-26 14:50:00,
2017-05-26 10:55:00,50.4,49.6,29.57,North,0,4.0,4.0,97,0.00,,,1.36,137,WeatherCatV2.40B198,2017-05-26 14:55:00,
2017-05-26 11:00:00,50.5,49.7,29.57,North,0,0.0,3.0,97,0.00,,,1.36,148,WeatherCatV2.40B198,2017-05-26 15:00:00,
2017-05-26 11:05:00,50.5,49.7,29.57,North,5,1.0,3.0,97,0.00,,,1.36,128,WeatherCatV2.40B198,2017-05-26 15:05:00,
2017-05-26 11:10:00,50.6,49.8,29.57,North,0,0.0,3.0,97,0.00,,,1.36,105,WeatherCatV2.40B198,2017-05-26 15:10:00,
2017-05-26 11:15:00,50.8,50.0,29.57,North,0,1.0,3.0,97,0.00,,,1.36,111,WeatherCatV2.40B198,2017-05-26 15:15:00,
2017-05-26 11:20:00,50.8,49.7,29.57,North,351,3.0,3.0,96,0.00,,,1.36,118,WeatherCatV2.40B198,2017-05-26 15:20:00,
2017-05-26 11:25:00,50.9,49.8,29.57,North,5,1.0,4.0,96,0.00,,,1.36,130,WeatherCatV2.40B198,2017-05-26 15:25:00,
2017-05-26 11:30:00,51.0,49.9,29.57,North,355,1.0,2.0,96,0.00,,,1.36,107,WeatherCatV2.40B198,2017-05-26 15:30:00,
2017-05-26 11:35:00,51.2,50.1,29.57,NNE,30,1.0,3.0,96,0.00,,,1.36,146,WeatherCatV2.40B198,2017-05-26 15:35:00,
2017-05-26 11:40:00,51.3,49.9,29.57,North,0,2.0,3.0,95,0.00,,,1.36,213,WeatherCatV2.40B198,2017-05-26 15:40:00,
2017-05-26 11:45:00,51.4,50.0,29.57,North,5,2.0,4.0,95,0.00,,,1.36,149,WeatherCatV2.40B198,2017-05-26 15:45:00,
2017-05-26 11:50:00,51.4,49.7,29.57,North,0,1.0,4.0,94,0.00,,,1.36,165,WeatherCatV2.40B198,2017-05-26 15:50:00,
2017-05-26 11:55:00,51.5,49.8,29.57,NNE,16,5.0,5.0,94,0.00,,,1.36,141,WeatherCatV2.40B198,2017-05-26 15:55:00,
2017-05-26 12:00:00,51.6,49.6,29.57,NNW,345,0.0,5.0,93,0.00,,,1.36,134,WeatherCatV2.40B198,2017-05-26 16:00:00,
2017-05-26 12:05:00,51.7,49.7,29.57,North,5,0.0,2.0,93,0.00,,,1.36,142,WeatherCatV2.40B198,2017-05-26 16:05:00,
2017-05-26 12:10:00,51.7,49.7,29.57,North,355,1.0,3.0,93,0.00,,,1.36,116,WeatherCatV2.40B198,2017-05-26 16:10:00,
2017-05-26 12:15:00,51.8,49.8,29.57,North,0,0.0,5.0,93,0.00,,,1.36,114,WeatherCatV2.40B198,2017-05-26 16:15:00,
2017-05-26 12:20:00,51.9,49.9,29.57,North,9,1.0,2.0,93,0.00,,,1.36,114,WeatherCatV2.40B198,2017-05-26 16:20:00,
2017-05-26 12:25:00,51.9,49.7,29.57,NNW,345,0.0,4.0,92,0.00,,,1.36,156,WeatherCatV2.40B198,2017-05-26 16:25:00,
2017-05-26 12:30:00,52.1,50.1,29.57,North,0,0.0,3.0,93,0.00,,,1.36,172,WeatherCatV2.40B198,2017-05-26 16:30:00,
2017-05-26 12:35:00,52.2,50.0,29.57,North,5,0.0,3.0,92,0.00,,,1.36,185,WeatherCatV2.40B198,2017-05-26 16:35:00,
2017-05-26 12:40:00,52.3,50.0,29.57,North,355,3.0,3.0,92,0.00,,,1.36,137,WeatherCatV2.40B198,2017-05-26 16:40:00,
2017-05-26 12:45:00,52.4,50.1,29.57,North,0,2.0,3.0,92,0.00,,,1.36,179,WeatherCatV2.40B198,2017-05-26 16:45:00,
2017-05-26 12:50:00,52.5,50.2,29.57,North,350,2.0,2.0,92,0.00,,,1.36,214,WeatherCatV2.40B198,2017-05-26 16:50:00,
2017-05-26 12:55:00,52.6,50.0,29.57,North,355,0.0,3.0,91,0.00,,,1.36,116,WeatherCatV2.40B198,2017-05-26 16:55:00,
2017-05-26 13:00:00,52.6,50.0,29.57,North,355,2.0,5.0,91,0.00,,,1.36,116,WeatherCatV2.40B198,2017-05-26 17:00:00,
2017-05-26 13:01:00,52.6,50.0,29.57,North,0,1.0,5.0,91,0.00,,,1.36,116,WeatherCatV2.40B198,2017-05-26 17:01:00,
2017-05-26 13:06:00,52.7,50.2,29.57,North,0,1.0,4.0,91,0.00,,,1.36,176,WeatherCatV2.40B198,2017-05-26 17:06:00,
2017-05-26 13:11:00,52.8,50.0,29.57,NNW,344,2.0,5.0,90,0.00,,,1.36,171,WeatherCatV2.40B198,2017-05-26 17:11:00,
2017-05-26 13:16:00,52.9,50.0,29.57,North,0,3.0,7.0,90,0.00,,,1.36,195,WeatherCatV2.40B198,2017-05-26 17:16:00,
2017-05-26 13:21:00,53.0,50.1,29.57,North,5,6.0,6.0,90,0.00,,,1.36,176,WeatherCatV2.40B198,2017-05-26 17:21:00,
2017-05-26 13:26:00,53.1,49.9,29.57,North,0,4.0,8.0,89,0.00,,,1.36,160,WeatherCatV2.40B198,2017-05-26 17:26:00,
2017-05-26 13:31:00,53.3,50.1,29.57,North,11,1.0,5.0,89,0.00,,,1.36,185,WeatherCatV2.40B198,2017-05-26 17:31:00,
2017-05-26 13:36:00,53.4,50.2,29.57,NNW,339,3.0,5.0,89,0.00,,,1.36,248,WeatherCatV2.40B198,2017-05-26 17:36:00,
2017-05-26 13:41:00,53.5,50.6,29.57,NNW,343,2.0,2.0,90,0.00,,,1.36,294,WeatherCatV2.40B198,2017-05-26 17:41:00,
2017-05-26 13:46:00,53.7,50.5,29.57,North,9,3.0,5.0,89,0.00,,,1.36,144,WeatherCatV2.40B198,2017-05-26 17:46:00,
2017-05-26 13:51:00,53.8,50.6,29.57,NNE,14,0.0,2.0,89,0.00,,,1.36,91,WeatherCatV2.40B198,2017-05-26 17:51:00,
2017-05-26 13:56:00,53.9,50.7,29.57,NNW,346,0.0,3.0,89,0.00,,,1.36,83,WeatherCatV2.40B198,2017-05-26 17:56:00,
2017-05-26 14:01:00,54.0,50.5,29.57,North,0,0.0,3.0,88,0.00,,,1.36,62,WeatherCatV2.40B198,2017-05-26 18:01:00,
2017-05-26 14:06:00,54.0,50.5,29.57,North,5,2.0,6.0,88,0.00,,,1.36,74,WeatherCatV2.40B198,2017-05-26 18:06:00,
2017-05-26 14:11:00,54.0,50.2,29.57,North,5,0.0,4.0,87,0.00,,,1.36,116,WeatherCatV2.40B198,2017-05-26 18:11:00,
2017-05-26 14:16:00,54.0,50.5,29.57,NNW,347,2.0,4.0,88,0.00,,,1.36,102,WeatherCatV2.40B198,2017-05-26 18:16:00,
2017-05-26 14:21:00,54.1,50.6,29.57,North,0,0.0,3.0,88,0.00,,,1.36,121,WeatherCatV2.40B198,2017-05-26 18:21:00,
2017-05-26 14:26:00,54.0,50.2,29.57,North,0,3.0,5.0,87,0.00,,,1.36,109,WeatherCatV2.40B198,2017-05-26 18:26:00,
2017-05-26 14:31:00,54.0,50.5,29.57,NNW,346,2.0,5.0,88,0.00,,,1.36,104,WeatherCatV2.40B198,2017-05-26 18:31:00,
2017-05-26 14:36:00,54.0,50.2,29.58,North,349,4.0,4.0,87,0.00,,,1.36,91,WeatherCatV2.40B198,2017-05-26 18:36:00,
2017-05-26 14:41:00,54.0,50.2,29.58,NNW,338,1.0,3.0,87,0.00,,,1.36,113,WeatherCatV2.40B198,2017-05-26 18:41:00,
2017-05-26 14:46:00,54.0,50.2,29.58,North,355,0.0,2.0,87,0.00,,,1.36,114,WeatherCatV2.40B198,2017-05-26 18:46:00,
2017-05-26 14:51:00,54.0,50.2,29.58,NNW,340,2.0,4.0,87,0.00,,,1.36,120,WeatherCatV2.40B198,2017-05-26 18:51:00,
2017-05-26 14:56:00,54.0,50.2,29.58,NNE,15,0.0,4.0,87,0.00,,,1.36,135,WeatherCatV2.40B198,2017-05-26 18:56:00,
2017-05-26 15:00:00,54.0,50.2,29.58,NNW,346,2.0,3.0,87,0.00,,,1.36,156,WeatherCatV2.40B198,2017-05-26 19:00:00,
2017-05-26 15:05:00,54.2,50.7,29.58,North,5,1.0,4.0,88,0.00,,,1.36,197,WeatherCatV2.40B198,2017-05-26 19:05:00,
2017-05-26 15:10:00,54.3,50.8,29.58,NNW,337,2.0,5.0,88,0.00,,,1.36,123,WeatherCatV2.40B198,2017-05-26 19:10:00,
2017-05-26 15:15:00,54.4,50.3,29.58,North,0,0.0,3.0,86,0.00,,,1.36,107,WeatherCatV2.40B198,2017-05-26 19:15:00,
2017-05-26 15:20:00,54.5,50.4,29.58,North,355,2.0,4.0,86,0.00,,,1.36,105,WeatherCatV2.40B198,2017-05-26 19:20:00,
2017-05-26 15:25:00,54.5,50.4,29.58,North,355,3.0,4.0,86,0.00,,,1.36,93,WeatherCatV2.40B198,2017-05-26 19:25:00,
2017-05-26 15:30:00,54.6,50.5,29.59,North,9,1.0,2.0,86,0.00,,,1.36,79,WeatherCatV2.40B198,2017-05-26 19:30:00,
2017-05-26 15:35:00,54.6,50.5,29.59,NW,325,2.0,2.0,86,0.00,,,1.36,76,WeatherCatV2.40B198,2017-05-26 19:35:00,
2017-05-26 15:37:00,54.6,49.9,29.59,NNW,348,0.0,3.0,84,0.00,,,1.36,76,WeatherCatV2.40B198,2017-05-26 19:37:00,
2017-05-26 15:42:00,54.6,50.2,29.59,NNW,337,2.0,4.0,85,0.00,,,1.36,95,WeatherCatV2.40B198,2017-05-26 19:42:00,
2017-05-26 15:47:00,54.5,49.8,29.59,North,5,3.0,3.0,84,0.00,,,1.36,86,WeatherCatV2.40B198,2017-05-26 19:47:00,
2017-05-26 15:52:00,54.5,50.1,29.59,North,9,0.0,4.0,85,0.00,,,1.36,100,WeatherCatV2.40B198,2017-05-26 19:52:00,
2017-05-26 15:57:00,54.5,49.8,29.59,North,0,2.0,5.0,84,0.00,,,1.36,113,WeatherCatV2.40B198,2017-05-26 19:57:00,
2017-05-26 16:02:00,54.4,49.7,29.60,North,355,0.0,5.0,84,0.00,,,1.36,134,WeatherCatV2.40B198,2017-05-26 20:02:00,
2017-05-26 16:07:00,54.4,50.0,29.59,North,355,0.0,2.0,85,0.00,,,1.36,139,WeatherCatV2.40B198,2017-05-26 20:07:00,
2017-05-26 16:12:00,54.5,50.1,29.60,North,10,0.0,3.0,85,0.00,,,1.36,107,WeatherCatV2.40B198,2017-05-26 20:12:00,
2017-05-26 16:17:00,54.6,50.5,29.61,NNE,18,0.0,1.0,86,0.00,,,1.36,113,WeatherCatV2.40B198,2017-05-26 20:17:00,
2017-05-26 16:22:00,54.6,50.5,29.61,NNE,19,1.0,1.0,86,0.00,,,1.36,67,WeatherCatV2.40B198,2017-05-26 20:22:00,
2017-05-26 16:27:00,54.6,50.2,29.61,NNE,21,0.0,1.0,85,0.00,,,1.36,51,WeatherCatV2.40B198,2017-05-26 20:27:00,
2017-05-26 16:32:00,54.7,50.6,29.61,NNE,13,0.0,2.0,86,0.00,,,1.36,54,WeatherCatV2.40B198,2017-05-26 20:32:00,
2017-05-26 16:37:00,54.7,50.6,29.61,North,355,1.0,2.0,86,0.00,,,1.36,54,WeatherCatV2.40B198,2017-05-26 20:37:00,
2017-05-26 16:42:00,54.7,50.6,29.61,North,355,3.0,3.0,86,0.00,,,1.36,53,WeatherCatV2.40B198,2017-05-26 20:42:00,
2017-05-26 16:47:00,54.7,50.3,29.61,NNW,337,1.0,3.0,85,0.00,,,1.36,54,WeatherCatV2.40B198,2017-05-26 20:47:00,
2017-05-26 16:52:00,54.7,50.0,29.61,North,0,0.0,3.0,84,0.00,,,1.36,67,WeatherCatV2.40B198,2017-05-26 20:52:00,
2017-05-26 16:57:00,54.6,49.9,29.61,NNW,348,2.0,2.0,84,0.00,,,1.36,76,WeatherCatV2.40B198,2017-05-26 20:57:00,
2017-05-26 17:02:00,54.6,49.9,29.61,North,355,1.0,3.0,84,0.00,,,1.36,79,WeatherCatV2.40B198,2017-05-26 21:02:00,
2017-05-26 17:07:00,54.6,50.2,29.62,NNW,340,0.0,4.0,85,0.00,,,1.36,83,WeatherCatV2.40B198,2017-05-26 21:07:00,
2017-05-26 17:12:00,54.6,49.9,29.62,North,355,1.0,3.0,84,0.00,,,1.36,76,WeatherCatV2.40B198,2017-05-26 21:12:00,
2017-05-26 17:17:00,54.6,49.9,29.63,NNW,332,2.0,3.0,84,0.00,,,1.36,60,WeatherCatV2.40B198,2017-05-26 21:17:00,
2017-05-26 17:22:00,54.6,50.2,29.63,North,355,1.0,2.0,85,0.00,,,1.36,54,WeatherCatV2.40B198,2017-05-26 21:22:00,
2017-05-26 17:27:00,54.6,49.9,29.63,NNW,340,0.0,2.0,84,0.00,,,1.36,54,WeatherCatV2.40B198,2017-05-26 21:27:00,
2017-05-26 17:32:00,54.6,49.9,29.63,North,0,0.0,3.0,84,0.00,,,1.36,49,WeatherCatV2.40B198,2017-05-26 21:32:00,
2017-05-26 17:37:00,54.6,50.2,29.63,North,355,0.0,1.0,85,0.00,,,1.36,42,WeatherCatV2.40B198,2017-05-26 21:37:00,
2017-05-26 17:42:00,54.6,50.2,29.63,NNW,348,0.0,2.0,85,0.00,,,1.36,39,WeatherCatV2.40B198,2017-05-26 21:42:00,